Temperature
7 7 7 7 8 8 8 8 8 8 9 8 9 9 9 9 9 9 10 10 10 10 10 10 10 10 10 10 9 9 9 9 9 9 9 9 10 10 10 10 10 10 10
6 7 7 7 7 8 8 8 8 8 8 8 8 8 8 8 9 9 9 9 9 9 9 9 10 9 9 9 9 9 9 9 9 9 9 8 9 9 9 9 9 10 10
6 6 6 7 7 7 7 7 7 7 8 8 8 8 8 8 8 8 8 9 9 9 9 9 9 9 9 9 9 9 9 9 9 9 8 8 8 8 9 9 9 9 9
5 6 6 6 7 7 7 7 7 7 7 7 7 7 7 7 7 7 8 8 8 8 8 8 8 8 8 8 8 8 8 8 8 8 8 8 8 8 8 9 9 9 9
5 5 5 6 6 6 6 6 6 7 7 7 7 7 7 7 7 7 7 7 8 8 8 8 8 8 8 8 8 8 8 8 8 8 8 8 8 8 8 8 8 8 9
4 5 5 5 6 6 6 6 6 6 6 6 6 6 6 6 6 7 7 7 7 7 7 7 7 8 8 8 8 8 8 7 7 8 8 8 8 8 8 8 8 8 8
4 4 5 5 5 5 5 5 5 5 5 5 5 6 6 6 6 6 6 6 6 6 7 7 7 7 7 7 7 7 7 7 7 7 8 8 8 7 7 7 7 7 8
3 4 4 4 4 5 5 5 5 5 5 5 5 5 5 5 5 6 6 6 6 6 6 7 7 7 7 7 7 7 7 7 7 7 7 7 7 7 7 7 7 7 7
3 3 4 4 4 4 4 4 4 4 4 4 4 5 5 5 5 5 5 5 6 6 6 6 6 6 7 7 7 7 7 7 7 7 7 7 7 7 7 7 6 6 6
2 3 3 3 3 4 4 4 4 4 4 4 4 4 4 4 4 4 5 5 5 5 6 6 6 6 6 6 6 6 6 6 6 6 6 6 6 6 6 6 6 6 6
2 2 2 3 3 3 3 3 3 3 3 3 3 4 4 4 4 4 4 4 5 5 5 5 5 5 6 6 6 6 6 6 6 6 6 6 6 6 6 6 6 6 5
1 2 2 2 2 2 2 3 3 3 3 3 3 3 3 3 3 3 4 4 4 4 4 5 5 5 5 5 5 5 5 5 5 6 5 6 6 6 5 5 5 5 5
1 1 1 2 2 2 2 2 2 2 2 2 3 3 3 3 3 3 3 3 3 4 4 4 4 5 5 5 5 5 5 5 5 5 5 5 5 5 5 5 5 5 5
0 0 1 1 1 1 1 1 1 2 2 2 2 2 2 2 3 3 3 3 3 3 3 4 4 4 4 4 5 5 5 5 5 5 5 5 5 5 5 5 5 4 4
-0 -0 0 0 0 0 0 0 1 1 1 2 2 2 2 2 2 2 2 2 2 3 3 3 3 3 4 4 4 4 4 4 4 4 4 4 4 4 4 4 4 4 4
-1 -1 -1 -0 -0 -0 0 0 1 1 1 1 1 1 1 1 1 1 2 2 2 2 2 3 3 3 3 3 3 4 3 4 4 4 4 4 4 4 4 4 4 4 3
-1 -1 -1 -1 -1 -1 -0 -0 0 0 0 1 1 1 1 1 1 1 1 1 2 2 2 2 2 2 3 3 3 3 3 3 3 3 3 3 3 3 3 3 3 3 3
-1 -1 -1 -1 -1 -1 -1 -1 -0 -0 -0 0 0 1 1 1 1 1 1 1 1 1 1 2 2 2 2 2 2 2 2 3 3 3 3 3 3 3 3 3 3 3 3
-2 -2 -2 -2 -2 -1 -1 -1 -1 -1 -0 -0 -0 -0 0 0 0 1 1 1 1 1 1 1 1 2 2 2 2 2 2 2 2 2 2 2 2 2 2 2 2 2 2
-2 -2 -2 -2 -2 -2 -2 -2 -1 -1 -1 -1 -1 -1 -0 -0 -0 0 0 0 0 0 0 1 1 1 1 1 1 1 1 1 2 2 2 2 2 2 2 2 2 2 2
-2 -2 -2 -2 -2 -2 -2 -2 -2 -2 -1 -1 -1 -1 -1 -1 -1 -1 -0 -0 -0 -0 -0 0 0 0 0 1 1 1 1 1 1 1 1 1 1 1 1 2 2 2 2
-2 -2 -3 -2 -2 -2 -2 -2 -2 -2 -2 -2 -2 -2 -1 -1 -1 -1 -1 -1 -1 -1 -0 -0 -0 -0 -0 -0 -0 0 0 0 0 0 1 1 1 1 1 1 1 1 1
-3 -3 -3 -3 -3 -3 -3 -3 -3 -2 -2 -2 -2 -2 -2 -2 -2 -2 -1 -1 -1 -1 -1 -1 -1 -1 -1 -1 -1 -1 -0 -0 -0 -0 -0 0 0 0 0 0 1 1 1
-3 -3 -3 -3 -3 -3 -3 -3 -3 -3 -3 -3 -2 -2 -2 -2 -2 -2 -2 -2 -2 -2 -2 -2 -2 -2 -1 -1 -1 -1 -1 -1 -1 -1 -0 -0 -0 0 -0 0 0 0 0
-4 -4 -4 -4 -4 -4 -3 -3 -3 -3 -3 -3 -3 -3 -3 -3 -3 -3 -3 -2 -2 -3 -3 -3 -3 -3 -2 -2 -2 -2 -1 -1 -1 -1 -1 -1 -0 -0 -0 -0 -0 -0 -0
-4 -4 -4 -4 -4 -4 -4 -4 -4 -3 -3 -3 -3 -3 -3 -3 -3 -3 -3 -3 -3 -3 -3 -3 -3 -3 -3 -2 -2 -2 -2 -1 -1 -1 -1 -1 -1 -1 -1 -1 -1 -1 -1
Wind_Speed
5 3 3 3 1 1 2 2 2 1 2 1 1 1 1 1 1 2 3 3 4 4 4 4 4 4 4 4 4 3 2 2 3 2 0 2 2 2 2 2 2 2 3
5 4 3 2 1 1 1 2 2 1 1 1 1 2 1 1 1 1 2 3 3 3 4 4 4 4 4 4 5 4 2 1 3 3 2 1 2 2 2 2 3 3 2
4 4 4 3 0 1 1 1 1 1 1 1 1 1 1 1 0 1 1 1 2 3 4 4 4 4 4 5 5 5 5 3 2 3 4 3 3 2 2 2 2 3 3
4 4 4 2 1 1 1 1 0 0 1 1 2 2 2 2 2 1 1 1 2 3 4 4 4 4 4 4 5 4 4 5 4 2 2 2 2 2 1 2 2 3 4
5 4 4 3 2 1 0 1 1 1 1 1 2 2 2 1 0 0 1 1 1 2 3 4 4 4 3 4 5 4 4 4 5 4 3 2 1 2 2 3 2 2 3
6 5 5 3 2 1 1 1 1 1 1 1 1 1 2 2 2 1 2 1 1 2 3 4 4 4 3 4 5 5 5 4 4 4 4 4 4 4 3 4 3 3 2
6 6 6 4 3 2 2 1 1 2 2 1 2 1 2 3 4 4 3 3 2 2 3 4 4 4 4 4 4 4 5 5 5 4 4 4 4 4 3 3 2 2 2
6 6 5 4 3 3 2 2 2 2 2 2 2 1 2 2 2 3 3 3 3 3 3 3 3 4 4 4 4 4 4 4 5 5 4 3 3 4 4 4 3 2 1
7 7 6 4 3 3 3 3 2 2 2 2 2 1 1 2 2 2 2 2 2 2 2 3 3 3 4 4 4 4 4 4 4 4 4 4 3 3 3 3 4 4 3
7 6 5 5 4 3 3 3 3 3 3 2 2 2 2 2 2 1 2 2 2 2 2 2 3 3 3 3 3 3 4 4 4 4 4 4 3 3 3 4 4 3 3
7 6 6 5 4 4 3 3 3 4 3 3 2 2 2 2 1 1 2 2 2 2 2 2 3 3 3 3 3 4 4 4 4 4 4 5 4 4 4 3 3 2 2
6 6 6 5 4 4 4 4 4 3 3 3 3 2 2 1 1 1 2 2 2 2 2 2 2 3 3 3 4 5 4 4 5 5 5 4 3 4 4 4 3 3 3
6 6 5 5 4 4 4 4 4 4 3 3 3 2 2 1 1 2 2 2 2 2 1 1 2 2 3 3 4 4 4 4 4 5 5 5 4 4 4 4 4 3 2
6 6 6 5 5 4 4 4 5 4 3 3 2 2 3 2 2 2 1 2 2 2 1 2 2 2 2 3 2 3 3 4 4 4 4 5 6 5 5 4 4 3 3
7 7 6 6 5 5 5 4 4 4 3 3 3 3 3 3 2 2 2 2 2 2 2 2 2 2 2 2 1 2 2 3 3 3 3 4 5 6 5 4 4 4 3
8 7 7 7 6 6 5 5 5 4 3 2 2 2 2 2 3 2 2 2 2 2 2 2 2 3 3 3 2 1 2 2 3 3 3 3 3 4 4 5 5 5 5
7 7 7 6 7 6 5 5 5 4 3 3 3 2 2 2 3 2 2 2 2 2 2 2 2 3 3 3 2 1 1 2 3 3 3 2 2 2 2 3 3 4 5
7 7 6 7 7 6 5 5 5 4 3 3 3 3 3 3 3 2 2 2 2 2 2 3 2 3 3 3 2 1 1 1 3 3 3 3 3 3 3 3 2 2 2
6 5 5 6 6 6 5 5 5 4 3 3 3 3 3 3 3 3 3 2 2 2 2 3 2 2 3 4 2 1 0 1 1 2 2 3 4 4 4 4 3 2 1
4 5 5 5 5 6 5 4 4 4 4 4 4 3 3 2 3 3 3 2 2 2 2 3 2 2 2 4 3 2 0 1 1 1 1 3 3 4 5 4 4 3 2
5 4 4 4 5 5 4 4 4 4 4 4 4 4 3 3 2 2 2 2 2 2 2 3 3 2 3 4 4 3 1 1 1 1 1 2 3 4 4 4 4 4 2
5 5 5 5 5 5 4 4 4 4 4 3 3 4 3 3 3 2 2 2 2 2 2 2 3 3 3 3 4 4 2 2 1 1 1 1 1 2 2 2 3 3 2
4 5 4 5 5 5 4 4 5 5 4 3 4 4 4 3 3 2 2 2 2 2 2 2 3 3 3 3 5 5 4 3 1 1 1 0 1 1 1 2 3 3 2
4 4 4 5 5 5 5 4 4 4 3 3 4 4 3 4 4 3 3 2 2 2 2 2 3 3 3 3 3 3 3 3 2 1 1 2 2 2 2 2 2 1 2
4 3 3 4 5 5 5 5 4 4 4 4 4 4 4 4 4 4 3 3 2 2 3 2 2 3 3 3 5 4 2 2 1 0 1 1 1 1 1 1 1 1 1
4 4 4 4 4 4 5 5 4 3 3 3 4 4 3 3 3 3 4 6 5 6 6 5 4 4 4 6 6 5 5 4 2 1 1 1 1 1 1 0 1 0 0
Wind_Direction
288 292 290 285 269 189 160 160 160 165 133 155 190 210 234 259 202 183 168 167 164 172 179 176 168 172 185 185 176 173 153 178 161 141 346 313 262 229 230 219 209 235 220
320 319 312 299 231 172 175 180 184 176 167 204 217 225 218 222 208 196 175 170 166 173 189 183 182 182 181 181 184 171 166 222 186 163 166 260 290 260 234 221 211 223 222
306 296 295 275 258 179 191 202 206 181 192 207 193 108 72 54 210 174 178 194 186 189 197 184 184 190 188 194 194 183 180 194 222 197 176 177 221 248 261 229 211 213 221
324 306 300 289 266 255 252 258 231 151 188 184 193 176 176 218 243 232 213 211 197 198 195 186 183 196 199 197 203 195 195 187 207 218 212 203 177 181 255 262 227 221 224
323 312 307 276 269 265 27 335 345 330 272 247 216 192 208 227 208 197 190 214 212 206 207 191 189 198 205 207 200 197 198 201 204 208 192 191 206 205 198 241 246 249 235
331 326 328 338 348 357 33 41 347 293 290 285 258 203 206 203 184 216 212 237 247 232 220 209 200 205 208 214 204 200 199 206 206 212 200 188 184 192 199 220 237 244 255
337 336 340 342 353 355 341 341 322 299 301 293 277 239 226 217 208 211 213 218 234 247 233 219 213 211 208 210 202 200 203 205 204 209 217 205 203 186 192 199 226 247 264
341 336 331 329 331 333 330 323 304 292 293 293 282 252 239 234 239 236 227 226 232 240 236 221 215 215 208 209 203 204 208 206 206 209 206 202 208 196 195 189 190 223 261
339 335 336 336 328 328 326 315 309 306 306 298 293 269 261 251 246 249 242 243 247 242 237 227 220 214 209 208 208 212 210 204 208 209 206 206 207 200 200 194 196 191 214
338 338 340 340 330 327 332 337 333 329 322 307 303 308 285 273 267 255 252 255 256 247 238 238 232 231 221 210 211 217 214 206 212 209 207 212 207 194 198 201 207 204 203
331 335 340 341 338 339 340 336 337 339 337 329 321 313 302 288 290 280 275 266 263 250 247 239 236 238 232 222 217 226 213 209 211 208 206 218 205 198 202 193 193 203 196
328 336 341 343 348 344 341 339 334 329 320 323 324 312 303 298 291 291 289 285 278 267 258 252 254 254 243 226 220 231 221 216 215 212 207 218 206 201 199 190 191 201 209
335 340 348 350 344 339 338 340 332 323 328 337 331 323 318 326 310 292 301 299 290 291 286 292 277 272 266 248 236 229 219 219 223 216 211 214 203 208 202 197 194 198 208
333 342 345 342 339 338 335 331 326 325 329 332 330 331 328 322 310 310 316 306 299 300 304 296 276 270 274 267 252 220 218 215 218 216 213 213 205 202 198 199 195 189 191
332 337 338 338 338 336 333 326 322 330 334 334 336 325 323 331 335 338 332 323 319 315 311 306 296 285 276 271 256 218 220 210 214 216 221 220 213 209 203 199 190 185 190
325 330 334 337 337 332 330 329 328 330 334 331 323 325 336 342 340 335 337 335 335 334 332 322 309 297 293 299 291 266 230 220 212 216 221 224 212 212 211 207 202 196 196
317 321 323 324 322 322 323 325 323 330 337 335 331 333 340 341 334 331 342 338 335 342 335 326 320 303 296 313 317 291 241 225 218 211 207 221 219 206 197 205 215 224 226
314 316 317 319 320 321 325 327 330 338 340 341 337 338 346 340 335 345 345 341 338 335 323 318 312 310 320 330 321 303 292 255 226 213 204 208 212 205 187 178 194 241 249
302 305 309 312 320 323 327 333 336 339 343 345 338 335 337 332 340 348 344 338 340 333 326 324 324 326 328 339 333 338 299 285 252 229 214 209 206 203 184 171 189 228 270
313 314 319 325 327 324 329 337 336 342 342 339 331 329 333 332 334 333 332 332 333 330 328 334 340 329 318 341 350 353 293 290 260 227 239 233 219 206 193 181 183 204 231
317 321 326 328 322 324 336 337 340 338 330 335 338 342 343 337 333 339 341 336 341 351 349 340 341 344 344 345 354 358 317 263 255 229 236 251 237 211 200 190 189 201 186
327 331 333 329 330 337 344 341 337 331 335 343 345 346 343 344 354 359 351 352 356 0 352 353 354 356 351 351 350 352 344 311 253 238 240 222 218 195 191 192 178 162 139
323 330 333 330 336 343 348 338 329 337 347 355 352 351 353 356 357 4 359 358 4 1 347 347 345 343 347 346 349 351 353 345 317 251 257 210 159 157 161 154 145 136 137
323 331 335 338 337 341 345 335 331 340 356 4 359 359 2 3 8 9 7 3 357 352 341 336 336 335 337 339 341 341 342 346 349 25 76 68 81 92 105 119 120 130 156
327 330 329 328 328 337 346 343 345 356 11 8 2 3 6 8 9 10 8 354 347 331 325 325 317 314 318 324 336 331 324 328 322 22 87 71 85 80 77 77 85 102 111
329 331 333 331 330 339 343 342 348 359 13 7 4 4 4 4 6 9 9 12 5 1 359 353 339 326 329 334 335 335 336 337 332 2 144 143 153 159 153 107 51 72 114
Height
1462 1463 1462 1462 1462 1463 1464 1466 1467 1468 1469 1469 1470 1470 1471 1472 1473 1474 1476 1478 1480 1481 1483 1484 1485 1487 1488 1489 1491 1493 1493 1494 1496 1498 1498 1500 1500 1501 1502 1503 1504 1505 1506
1459 1459 1459 1459 1460 1460 1462 1463 1465 1465 1466 1467 1468 1469 1469 1469 1470 1471 1472 1474 1476 1478 1479 1480 1481 1483 1485 1486 1488 1489 1489 1492 1493 1494 1495 1496 1497 1497 1498 1499 1500 1501 1502
1458 1458 1458 1457 1457 1458 1460 1461 1462 1463 1465 1466 1466 1466 1466 1466 1467 1468 1469 1471 1473 1475 1476 1477 1478 1480 1481 1482 1483 1485 1486 1488 1489 1491 1492 1492 1491 1493 1494 1495 1496 1497 1498
1457 1457 1456 1456 1456 1457 1458 1460 1460 1462 1463 1464 1464 1462 1462 1463 1464 1465 1466 1468 1470 1472 1473 1474 1475 1476 1477 1479 1480 1481 1483 1484 1485 1487 1488 1489 1488 1489 1490 1491 1492 1493 1494
1457 1456 1455 1455 1455 1456 1456 1457 1458 1459 1460 1461 1461 1460 1461 1462 1462 1463 1463 1465 1466 1468 1469 1470 1472 1473 1474 1475 1476 1477 1479 1480 1482 1483 1483 1484 1485 1486 1487 1487 1488 1489 1491
1456 1455 1454 1454 1454 1454 1455 1456 1456 1457 1457 1458 1458 1458 1458 1459 1459 1459 1460 1461 1462 1464 1465 1467 1468 1469 1470 1471 1471 1473 1474 1476 1477 1479 1479 1480 1481 1482 1484 1483 1483 1484 1486
1456 1455 1454 1453 1452 1452 1453 1453 1454 1454 1455 1455 1455 1455 1455 1456 1457 1457 1457 1458 1459 1460 1461 1463 1464 1465 1466 1467 1467 1468 1470 1471 1473 1474 1475 1476 1477 1479 1480 1480 1480 1480 1481
1456 1455 1454 1453 1452 1451 1451 1451 1451 1451 1452 1452 1452 1452 1453 1454 1454 1454 1454 1455 1456 1457 1458 1459 1460 1461 1462 1463 1463 1465 1466 1467 1468 1469 1470 1472 1473 1475 1476 1476 1477 1477 1477
1456 1454 1453 1452 1451 1450 1450 1450 1450 1450 1450 1450 1450 1450 1450 1451 1451 1451 1451 1452 1452 1453 1454 1455 1456 1457 1458 1459 1460 1460 1462 1463 1464 1465 1466 1468 1469 1470 1472 1473 1473 1474 1473
1455 1453 1452 1451 1450 1449 1449 1449 1449 1448 1448 1448 1448 1448 1448 1448 1448 1448 1448 1448 1449 1450 1450 1451 1452 1453 1453 1454 1456 1457 1458 1459 1460 1461 1462 1464 1465 1466 1468 1469 1470 1470 1470
1454 1452 1451 1450 1449 1449 1448 1448 1447 1446 1446 1446 1446 1445 1445 1445 1445 1445 1445 1446 1446 1447 1447 1447 1449 1449 1449 1450 1451 1453 1454 1454 1455 1457 1458 1460 1461 1462 1464 1465 1465 1466 1467
1454 1452 1450 1449 1448 1448 1447 1446 1446 1445 1444 1444 1444 1444 1443 1443 1443 1443 1443 1443 1443 1444 1444 1444 1445 1445 1446 1446 1447 1448 1449 1450 1451 1452 1454 1455 1457 1458 1460 1461 1461 1462 1463
1453 1451 1449 1447 1447 1446 1445 1445 1444 1443 1442 1442 1442 1441 1441 1440 1440 1440 1440 1441 1441 1441 1441 1441 1441 1442 1442 1443 1443 1444 1445 1446 1447 1448 1450 1451 1452 1454 1455 1457 1457 1459 1460
1453 1451 1448 1447 1445 1445 1444 1443 1442 1441 1440 1439 1439 1438 1438 1437 1437 1437 1438 1438 1438 1438 1438 1438 1439 1439 1439 1439 1439 1439 1441 1442 1443 1444 1446 1447 1448 1450 1451 1453 1453 1455 1456
1452 1450 1448 1446 1444 1443 1442 1442 1440 1439 1437 1437 1436 1436 1436 1435 1435 1435 1435 1435 1435 1435 1435 1435 1435 1436 1436 1435 1436 1436 1437 1438 1439 1441 1442 1443 1444 1446 1447 1449 1450 1451 1451
1452 1450 1447 1445 1443 1442 1441 1440 1438 1437 1436 1435 1435 1435 1434 1433 1433 1433 1433 1433 1433 1433 1433 1433 1433 1433 1433 1433 1433 1433 1434 1435 1436 1437 1438 1439 1441 1442 1444 1445 1446 1448 1448
1452 1449 1447 1444 1442 1440 1439 1438 1436 1435 1434 1433 1433 1433 1432 1431 1432 1432 1431 1431 1430 1430 1430 1430 1430 1430 1430 1430 1430 1430 1431 1432 1433 1433 1434 1435 1437 1438 1440 1441 1443 1444 1445
1451 1448 1446 1443 1441 1439 1438 1436 1434 1433 1432 1432 1431 1431 1430 1430 1430 1430 1429 1428 1428 1428 1428 1428 1427 1427 1427 1427 1428 1428 1428 1429 1429 1430 1431 1432 1433 1435 1436 1438 1439 1440 1441
1450 1448 1445 1443 1440 1438 1436 1435 1433 1432 1431 1430 1430 1429 1428 1428 1428 1427 1427 1427 1426 1426 1426 1426 1425 1424 1424 1425 1425 1426 1426 1426 1427 1427 1428 1429 1430 1432 1433 1435 1436 1437 1438
1449 1446 1444 1442 1439 1437 1435 1433 1432 1430 1429 1429 1428 1428 1427 1427 1426 1426 1425 1425 1425 1424 1424 1424 1423 1422 1422 1422 1423 1423 1423 1423 1424 1425 1425 1426 1427 1428 1430 1431 1432 1433 1435
1447 1445 1443 1440 1438 1436 1434 1432 1431 1429 1428 1428 1427 1426 1426 1426 1425 1425 1424 1424 1424 1423 1422 1422 1421 1421 1420 1420 1420 1421 1421 1421 1422 1422 1423 1423 1424 1426 1427 1428 1429 1430 1432
1445 1443 1441 1439 1437 1435 1433 1431 1430 1429 1428 1427 1426 1425 1425 1424 1424 1423 1423 1423 1422 1422 1421 1420 1420 1419 1419 1419 1419 1419 1419 1419 1420 1420 1421 1422 1423 1424 1424 1425 1426 1428 1429
1443 1441 1439 1437 1436 1434 1432 1430 1429 1428 1427 1426 1425 1425 1424 1424 1423 1422 1422 1421 1421 1420 1419 1418 1417 1417 1417 1417 1417 1417 1417 1418 1418 1418 1419 1420 1420 1421 1422 1423 1424 1426 1427
1441 1440 1438 1436 1434 1433 1431 1430 1428 1427 1426 1425 1424 1424 1423 1423 1422 1421 1421 1420 1420 1419 1418 1417 1417 1416 1416 1416 1416 1416 1416 1416 1416 1417 1417 1418 1418 1419 1420 1421 1423 1423 1424
1440 1438 1437 1435 1433 1432 1430 1429 1428 1427 1426 1425 1424 1423 1422 1422 1421 1421 1420 1420 1419 1419 1418 1417 1417 1416 1415 1415 1415 1415 1415 1415 1415 1415 1416 1416 1417 1417 1418 1419 1420 1421 1421
1438 1437 1436 1434 1433 1431 1430 1429 1428 1427 1426 1424 1424 1423 1422 1421 1421 1420 1419 1419 1419 1418 1417 1417 1416 1415 1415 1414 1414 1413 1413 1413 1414 1414 1414 1415 1415 1416 1416 1417 1418 1419 1419